#timestamp,LO_Frequency,Hit,StdDev 
1550750415.4,286046985.2,N
1550750435.3,286046984.8,N
1550750455.1,286046983.3,N
1550750475.9,286046982.5,N
1550750495.7,286046984.3,N
1550750515.5,286046986.7,N
1550750535.4,286046984.8,N
1550750555.2,286046982.4,N
1550750575.0,286046986.1,N
1550750575.9,286046986.1,N
1550750595.8,286046992.8,N
1550750615.6,286046995.8,N
1550750635.5,286046993.5,N
1550750655.3,286046991.7,N
1550750675.1,286046992.2,N
1550750695.9,286046989.0,N
1550750715.7,286046985.6,N
1550750735.6,286046983.6,N
1550750755.4,286046981.9,N
1550750775.2,286046981.1,Y
1550750795.1,286046994.0,P
1550750796.0,286046994.0,N
1550750815.8,286046996.4,N
1550750835.7,286047011.9,Y
1550750855.5,286046999.9,P
1550750875.3,286046998.6,N
1550750895.2,286046999.0,N
1550750915.0,286046997.6,N
1550750915.9,286046997.6,N
1550750935.7,286046995.8,N
1550750955.6,286046990.2,Y
1550750975.4,286046996.2,P
1550750995.3,286046998.9,N
1550751015.1,286046998.9,N
1550751035.8,286046998.3,N
1550751055.7,286046997.3,N
1550751075.5,286046999.6,N
1550751095.4,286046997.3,N
1550751115.2,286046995.4,Y
1550751135.0,286046997.4,P
1550751135.9,286046997.4,P
1550751155.8,286046994.1,P
1550751175.6,286046994.4,Y
1550751195.5,286046997.0,P
1550751215.3,286046999.6,P
1550751235.1,286046999.0,N
1550751255.9,286046998.7,N
1550751275.7,286046996.5,Y
1550751295.6,286047002.0,P
1550751315.4,286047002.4,N
1550751335.2,286047000.1,N
1550751355.1,286046999.7,N
1550751356.0,286046999.7,N
1550751375.8,286046998.1,N
1550751395.6,286047000.6,N
1550751415.5,286047002.5,N
1550751435.3,286046998.7,N
1550751455.2,286047002.3,N
1550751475.9,286047001.3,N
1550751495.7,286047004.4,N
1550751515.6,286047002.8,N
1550751535.4,286046999.7,N
1550751555.3,286046999.6,N
1550751575.1,286046999.5,N
1550751576.0,286046999.5,N
1550751595.8,286046996.7,N
1550751615.7,286046999.4,N
1550751635.5,286046997.3,N
1550751655.4,286046994.6,N
1550751675.2,286046992.1,Y
1550751695.0,286046994.5,P
1550751695.9,286046994.5,N
1550751715.8,286046993.6,N
1550751735.6,286046994.9,N
1550751755.5,286047000.7,N
1550751775.3,286047001.8,N
1550751795.1,286047004.1,N
1550751815.9,286047000.3,N
1550751835.7,286047001.2,N
1550751855.6,286046996.9,N
1550751875.4,286046997.0,N
1550751895.2,286046997.3,N
1550751915.1,286046995.1,N
1550751916.0,286046995.1,N
1550751935.8,286046995.1,N
1550751955.7,286046998.3,N
1550751975.5,286046998.9,N
1550751995.3,286046995.3,N
1550752015.2,286046995.4,N
1550752035.0,286046996.3,N
1550752035.9,286046996.3,N
1550752055.8,286046996.3,N
1550752075.6,286046994.0,N
1550752095.4,286046995.5,N
1550752115.3,286046997.9,N
1550752135.1,286046993.8,N
1550752155.8,286046991.7,Y
1550752175.7,286046996.7,P
1550752195.5,286046996.6,P
1550752215.4,286046999.5,N
1550752235.2,286046996.5,N
1550752255.0,286046996.8,N
1550752255.9,286046996.8,Y
1550752275.8,286047000.8,P
1550752295.6,286046998.5,N
1550752315.5,286047001.2,N
1550752335.3,286046999.7,N
1550752355.1,286047001.6,N
1550752375.9,286047001.5,N
1550752395.7,286047000.4,N
1550752415.6,286047004.2,N
1550752435.4,286047006.0,Y
1550752455.2,286047005.6,P
1550752475.1,286047005.1,N
1550752476.0,286047005.1,N
1550752495.8,286047003.1,N
1550752515.7,286047008.7,Y
1550752535.5,286047003.6,P
1550752555.3,286047004.2,P
1550752575.2,286047002.4,P
1550752595.9,286047000.7,N
1550752615.7,286047002.8,N
1550752635.6,286047005.6,Y
1550752655.4,286047000.9,P
1550752675.3,286047000.4,N
1550752695.1,286047002.0,N
1550752696.0,286047002.0,N
1550752715.8,286047005.5,Y
1550752735.7,286047002.0,P
1550752755.5,286047004.3,P
1550752775.4,286047000.5,N
1550752795.2,286047001.1,N
1550752815.0,286046997.0,N
1550752815.9,286046997.0,N
1550752835.8,286046999.2,N
1550752855.6,286046998.9,N
1550752875.5,286047002.3,N
1550752895.3,286047001.9,N
1550752915.1,286046999.8,N
1550752935.9,286047003.9,N
1550752955.7,286047011.5,Y
1550752975.5,286047019.1,P
1550752995.4,286047019.0,N
1550753015.2,286047020.4,N
1550753035.1,286047016.2,N
1550753036.0,286047016.2,N
1550753055.8,286047015.1,N
1550753075.6,286047011.2,N
1550753095.5,286047013.3,N
1550753115.3,286047014.6,N
1550753135.2,286047016.1,Y
1550753155.9,286047006.6,P
1550753175.7,286047021.9,P
1550753195.6,286047032.3,P
1550753215.4,286047048.4,Y
1550753235.2,286047029.1,P
1550753255.1,286047024.8,P
1550753256.0,286047024.8,P
1550753275.8,286047020.9,Y
1550753295.7,286046993.6,P
1550753315.5,286046987.4,N
1550753335.3,286046984.9,N
1550753355.2,286046991.5,N
1550753375.0,286047000.6,N
1550753375.9,286047000.6,N
1550753395.8,286047002.5,N
1550753415.6,286047000.6,N
1550753435.4,286046996.9,N
1550753455.3,286046997.5,N
1550753475.1,286046995.7,N
1550753495.9,286046999.1,N
1550753515.7,286047000.5,N
1550753535.5,286046999.1,N
1550753555.4,286046997.1,N
1550753575.2,286046994.4,N
1550753595.0,286046997.7,N
1550753595.9,286046997.7,N
1550753615.8,286047000.2,N
1550753635.6,286047001.6,N
1550753655.5,286047001.7,N
1550753675.3,286047000.3,N
1550753695.1,286046995.1,N
1550753715.9,286046990.5,N
1550753735.7,286046987.1,N
1550753755.5,286046985.2,N
1550753775.4,286046984.5,N
1550753795.2,286046988.4,N
1550753815.1,286046986.2,N
1550753816.0,286046986.2,N
1550753835.8,286046982.4,N
1550753855.6,286046979.4,Y
1550753875.5,286046981.0,P
1550753895.3,286046979.5,P
1550753915.2,286046977.3,P
1550753935.9,286046978.3,Y
1550753955.7,286046998.4,P
1550753975.6,286047001.7,N
1550753995.4,286047001.3,N
